Regional Weather Roundup
Issued by NWS

Home | Current Version | Previous Version | Graphics & Text | Print | Product List | Glossary On
Versions: 1 2 3 4 5 6 7 8 9 10 11 12 13 14 15 16 17 18 19 20 21 22 23 24 25 26 27 28 29 30 31 32 33 34 35 36 37 38 39 40 41 42 43 44 45 46 47 48 49 50
854
ASUS43 KMKX 080400
RWRWI

WISCONSIN REGIONAL WEATHER ROUNDUP
NATIONAL WEATHER SERVICE MILWAUKEE/SULLIVAN WI
1000 PM CST SUN FEB 07 2016

NOTE: "FAIR" INDICATES FEW OR NO CLOUDS BELOW 12,000 FEET WITH NO
SIGNIFICANT WEATHER AND/OR OBSTRUCTIONS TO VISIBILITY.

WIZ001-002-006>008-014>016-023>028-080500-
NORTHWEST WISCONSIN

CITY           SKY/WX    TMP DP  RH WIND       PRES   REMARKS
SUPERIOR ARPT  FLURRIES  24  18  77 NW16G24   29.67R WCI  11
ASHLAND        LGT SNOW  29  28  96 W12       29.56R FOG     WCI  19
HAYWARD        LGT SNOW  25  20  81 W8        29.61R WCI  16
SIREN          LGT SNOW  21  16  80 NW12      29.69R WCI   9
CUMBERLAND     LGT SNOW  23  18  80 NW20G25   29.64R WCI   8
RICE LAKE      LGT SNOW  24  20  85 W14       29.66R WCI  12
CHETEK         LGT SNOW  24  22  90 NW10G20   29.64R WCI  14
LADYSMITH      LGT SNOW  29  27  90 W15       29.60R WCI  18
EAU CLAIRE     LGT SNOW  26  21  81 W15       29.65R WCI  14
MENOMONIE      LGT SNOW  26  21  82 W18       29.67S WCI  13
NEW RICHMOND   LGT SNOW  21  17  84 NW18      29.70R WCI   6
OSCEOLA        CLOUDY    21  14  73 NW13G25   29.75R WCI   9
$$

WIZ003>005-009-010-017-018-080500-
NORTH CENTRAL WISCONSIN

CITY           SKY/WX    TMP DP  RH WIND       PRES   REMARKS
MANITOWISH WTR LGT SNOW  31  30  99 W9        29.50R WCI  22
ARBOR VITAE    LGT SNOW  32  30  94 SW3       29.50S
WOODRUFF       LGT SNOW  32  30  94 SW3       29.50S
RHINELANDER    LGT SNOW  31  29  92 SW6       29.51F FOG     WCI  25
EAGLE RIVER    CLOUDY    31  30  96 SW3       29.50F
LAND O LAKES   LGT SNOW  32  31  97 CALM      29.50F
PHILLIPS       LGT SNOW  28  28  96 W5        29.53R WCI  23
TOMAHAWK       LGT SNOW  31  29  92 CALM      29.53S
MEDFORD        LGT SNOW  31  30  97 W12G20    29.54R WCI  22
MERRILL        LGT SNOW  32  31  97 SW6       29.55F WCI  26
$$

WIZ029-030-035-036-043>047-080500-
CENTRAL WISCONSIN

CITY           SKY/WX    TMP DP  RH WIND       PRES   REMARKS
WAUSAU         LGT SNOW  35  28  75 W6        29.54S WCI  30
MOSINEE        CLOUDY    34  30  86 SW8       29.56F WCI  27
MARSHFIELD     CLOUDY    35  28  75 W10       29.55F WCI  27
STEVENS POINT  CLOUDY    34  26  71 SW7       29.58S WCI  28
WAUPACA        CLOUDY    38  27  66 SW6       29.60S WCI  33
WAUTOMA        NOT AVBL
WISC RAPIDS    LGT RAIN  35  27  72 W12       29.60S WCI  27
CAMP DOUGLAS   NOT AVBL
$$

WIZ011>013-019>022-031-037>040-048>050-080500-
NORTHEAST WISCONSIN

CITY           SKY/WX    TMP DP  RH WIND       PRES   REMARKS
ANTIGO         CLOUDY    32  27  82 W6        29.54S WCI  26
SHAWANO        CLOUDY    38  28  66 S3        29.58S
OCONTO         CLOUDY    37  30  76 SW5       29.58F WCI  33
STURGEON BAY   CLOUDY    36  28  75 SW8       29.60F WCI  29
GREEN BAY      MOCLDY    35  28  75 SW8       29.59F WCI  29
MANITOWOC      NOT AVBL
APPLETON       MOCLDY    34  25  69 S8        29.58S WCI  27
CLINTONVILLE   CLOUDY    36  28  75 SW7       29.58F WCI  30
OSHKOSH        CLOUDY    35  26  69 VRB3      29.60F
$$

WIZ032>034-041-042-053>061-080500-
SOUTHWEST WISCONSIN

CITY           SKY/WX    TMP DP  RH WIND       PRES   REMARKS
LA CROSSE      CLOUDY    34  25  69 NW17      29.65R WCI  23
SPARTA         CLOUDY    35  32  88 W8        29.63S WCI  29
VIROQUA        CLOUDY    33  32  96 W10       29.62F WCI  25
BOSCOBEL       CLOUDY    36  32  85 SW9       29.67F WCI  29
PRAIRIE DU CHI DRIZZLE   35  29  79 SW9       29.68F WCI  28
PLATTEVILLE    CLOUDY    34  30  86 SW10      29.68F WCI  26
$$

WIZ056-057-062-063-064-067-068-080500-
SOUTH CENTRAL WISCONSIN

CITY           SKY/WX    TMP DP  RH WIND       PRES   REMARKS
REEDSBURG      CLOUDY    35  29  79 SW9       29.62F WCI  27
BARABOO/DELLS  CLOUDY    35  28  75 SW8       29.62F WCI  28
LONE ROCK      NOT AVBL
MINERAL POINT  CLOUDY    34  30  86 W8        29.66F WCI  27
MADISON        CLOUDY    34  27  75 SW8       29.65F WCI  27
MIDDLETON      CLOUDY    35  29  79 SW12      29.65F WCI  27
WATERTOWN      PTCLDY    32  29  90 SW8       29.65F WCI  24
MONROE         MOCLDY    32  30  93 SW14      29.67F WCI  22
JANESVILLE     CLEAR     34  30  86 SW8       29.68F WCI  27
$$

WIZ051-052-058>065-066-070>072-080500-
SOUTHEAST WISCONSIN

CITY           SKY/WX    TMP DP  RH WIND       PRES   REMARKS
MILWAUKEE      PTCLDY    35  27  72 W9        29.66F WCI  28
WAUKESHA       CLEAR     32  27  80 SW10G16   29.66F WCI  24
MILWAUKEE/TIMM CLEAR     34  27  75 W9        29.66F WCI  26
RACINE         CLEAR     35  27  72 W10       29.68F WCI  27
BURLINGTON     CLEAR     32  27  80 W9        29.68F WCI  24
KENOSHA        CLEAR     34  27  75 W12       29.68F WCI  25
FOND DU LAC    MOCLDY    32  25  75 SW7       29.61F WCI  26
SHEBOYGAN      PTCLDY    32  25  75 SW6       29.62F WCI  26
WEST BEND      CLEAR     32  27  80 SW7       29.63F WCI  26
JUNEAU         CLOUDY    33  27  80 SW13      29.64F WCI  24
$$

LSZ147-162-080500-
LAKE SUPERIOR

STATION/POSITION TIME  TEMP    WIND        PRES    WAVE
                       AIR SEA DIR/SP/G            HT/PER
                 (UTC) (F)     (DEG/KT/KT) (MB)    (FT/S)
DEVILS ISLAND    0300   29      40/ 29/ 31 1001.6R
PORT WING        0300   30     330/ 16/ 19 1002.7R
SAXON HARBOR     0300   32                 1000.3R
$$

LMZ867-665-643>646-080500-
LAKE MICHIGAN

STATION/POSITION TIME  TEMP    WIND        PRES    WAVE
                       AIR SEA DIR/SP/G            HT/PER
                 (UTC) (F)     (DEG/KT/KT) (MB)    (FT/S)
CHAMBERS ISLAND  0300   36     180/  5/  8 1002.4S
NORTHPORT PIER   0300   36      CALM  /  3 1002.0F
KEWAUNEE LAKESHO 0300   37     250/  6/ 12 1002.0F
SHEBOYGAN LAKESH 0300   36     230/  7/  8 1004.3F
PORT WASHINGTON  0340   35     250/  4/  8 1004.7F
MILWAUKEE LAKESH 0310   37     270/  9/ 12   N/A
KENOSHA   LAKESH 0300   37     250/ 15/ 20 1005.4F
$$

TC  - TEMPERATURE IN CELSIUS
VSB - VISIBILITY IN STATUTE MILES
WCI - WIND CHILL INDEX
HX  - HEAT INDEX





USA.gov is the U.S. government's official web portal to all federal, state and local government web resources and services.